Location: Grasslands National Park East Block
(49.0708°N, 106.5295°W)
Time: 04:28:09
(UTC-06:00)

Vanguard 1 Rocket - Pass Details

Date: 27 September 2019
Orbit: 650 x 4226 km, 34.3° (Epoch: 20 October)

Event Time Altitude Azimuth Distance (km) Brightness Sun altitude
Rises 19:41:51 0° 259° (W) 8,402 13.9 -8.7°
Reaches altitude 10° 19:48:21 10° 255° (WSW) 7,158 13.1 -9.8°
Maximum altitude 20:08:55 47° 191° (SSW) 3,475 10.3 -13.1°
Enters shadow 20:19:30 15° 126° (SE) 4,032 10.1 -14.8°
Drops below altitude 10° 20:20:40 10° 123° (ESE) 4,260 - -15.0°
Sets 20:23:27 0° 117° (ESE) 4,890 - -15.4°
